* Astronomy

Members Login
Username 
 
Password 
    Remember Me  
Post Info TOPIC: Asteroid 2009 FR32


L

Posts: 131433
Date:
Asteroid 2009 FR32
Permalink  
 


The 25 - 55 metre wide asteroid 2009 FR32 passed the Earth-Moon system on the 10th April, 2009, at a distance of nine million, seven hundred and twenty thousand km.

Orbital elements:
2009 FR32 Earth MOID = 0.0644 AU
Epoch 2009 June 18.0 TT = JDT 2455000.5 MPC
M 28.15607 (2000.0) P Q
n 0.41437921 Peri. 200.50706 -0.93344103 +0.35873039
a 1.7818484 Node 0.51629 -0.31937487 -0.83028718
e 0.4039303 Incl. 3.73862 -0.16336318 -0.42653922
P 2.38 H 25.1 G 0.15 U 8

MPEC 2009-F101


__________________
Page 1 of 1  sorted by
 
Quick Reply

Please log in to post quick replies.



Create your own FREE Forum
Report Abuse
Powered by ActiveBoard